Погода Гайны

Погода Гайны : погода сейчас, прогноз погоды и архив. Всё, что Вы хотите узнать о погоде Гайны!

Хотите узнать прогноз погоды Гайны? Тогда Вам сюда: Погода Гайны

Поиск расширенной информации на нашем сайте:

Другие новости

Новости СМИ2

Главная страница сайта

Новости сайта

03.07.2017

Напоминаем, что на нашем специализированном сайте Метеоцентр.Азия вы можете получить высокодетализированные автоматические прогнозы погоды по пунктам России, СНГ и мира в авиационном формате (включающие направление и скорость ветра, видимость, явления погоды, количество и форму облачности, нижнюю и верхнюю границу облачности).

Рекомендуем: оптовые базы в Спб

Погода Гайны - сегодня

Время (UTC), дата Ветер
(°,м/с) 
Видим.   Явления Облачность Т
(°С)
Тd
(°С)
f(%) Тe
(°С)
Pmin
(гПа)
dP
(гПа)
Po
(мм)
O2
(г/м3)
Тmin Tmax R s Состояние
почвы
18 12.12.17 160 (Ю) 10 км  слаб. снег  10/9 300 м средняя 
[Sc|As op]
-12.6 -12.6 100 -13  1031.8  0.1  754  320           
21 12.12.17 160 (Ю) 20000 м  {снег}  10/10 300 м 
[Sc]
-11.8 -11.8 100 -12  1031.5  -0.2  754  319           
00 13.12.17 170 (Ю) 20000 м  {снег}  10/10 300 м 
[Sc]
-11 -11 100 -11  1031.3  0.1  754  318           
03 13.12.17 150 (ЮВ) 10 км    10/10 300 м 
[St]
-10.3 -10.3 100 -10  1030.1  -1.1  753  316  -14.3    0.0  21  равномерный
сухой снег
100% 
06 13.12.17 160 (Ю) 20000 м    10/10 300 м 
[St]
-8.8 -8.8 100 -9  1028.4  -1.1  752  314           
09 13.12.17 160 (Ю) 20000 м    10/10 300 м 
[St]
-7 -7.1 99 -11  1026.6  -1.5  751  311           
12 13.12.17 170 (Ю) 20000 м    10/10 300 м 
[St]
-5.6 -5.7 99 -8  1024.6  -1.8  749  309           
15 13.12.17 180 (Ю) 10 км  слаб. снег  10/10 300 м 
[St]
-4.5 -4.5 100 -8  1021.4  -2.9  747  307    -4.5  0.0     
18 13.12.17 180 (Ю) 6-10{12}  4000 м  слаб. снег  10/8 300 м средняя 
[Frnb|As op]
-4.1 -4.1 100 -8  1018.6  -2.7  745  305           
21 13.12.17 200 (Ю) 6-11{11}  2000 м  снег  10/10 200 м 
[Frnb|Ns]
-3.7 -3.7 100 -8  1016.6  -1.9  744  304           
00 14.12.17 200 (Ю) 6-10{11}  2000 м  снег  10/10 200 м 
[Frnb|Ns]
-3.7 -3.8 99 -8  1016.8  0.1  744  304           
03 14.12.17 210 (ЮЗ) 5{11}  4000 м  слаб. снег  10/10 300 м 
[Frnb|Ns]
-3.4 -3.5 99 -7  1018  1.2  745  304  -4.5    20  равномерный
сухой снег
100% 
06 14.12.17 220 (ЮЗ) 10 км  слаб. ливневой снег  10/8 300 м кучево-дожд., средняя 
[Cb calv|As trans]
-3.3 -3.3 100 -6  1019.7  1.2  746  305           
09 14.12.17 210 (ЮЗ) 10 км  в посл. час ливневой снег  10/5 300 м кучево-дожд., средняя 
[Cb calv|As trans]
-3.2 -3.2 100 -6  1021.2  1.5  747  305           
12 14.12.17 190 (Ю) 10 км  слаб. снег{ливн. осадки}  10/6 300 м средняя 
[Frnb|As trans]
-3.5 -3.5 100 -6  1021.8  0.6  748  306           
15 14.12.17 180 (Ю) 10 км  слаб. снег  10/9 300 м средняя 
[Frnb|As trans]
-4.1 -4.1 100 -6  1021.9  748  306    -3.1     
18 14.12.17 180 (Ю) 10 км  слаб. снег  10/9 300 м средняя 
[Frnb|As trans]
-4.7 -4.7 100 -8  1021.2  -0.7  747  307           
21 14.12.17 190 (Ю) 10 км  слаб. снег  10/9 300 м средняя 
[Frnb|As trans]
-4.3 -4.3 100 -7  1020.8  -0.4  747  306           
00 15.12.17 200 (Ю) 10 км  слаб. снег  10/9 300 м средняя 
[Sc|As trans]
-2.6 -2.6 100 -5  1020.3  -0.4  747  304           
03 15.12.17 200 (Ю) 20000 м  позёмок{снег}  10/10 300 м 
[Sc]
-1.5 -1.5 100 -4  1020.3  0.1  747  303  -4.7    25  равномерный
сухой снег
100% 
06 15.12.17 210 (ЮЗ) 5-10{10}  20000 м  позёмок{снег}  10/10 300 м 
[Sc]
-3.1 -3.6 96 -7  1021.3  0.9  747  305           
12 15.12.17 200 (Ю) 10 км  слаб. ливневой снег  10/10 300 м кучево-дожд. 
[Cb calv]
-4.5 -4.5 100 -8  1023.1  0.6  749  307           
15 15.12.17 210 (ЮЗ) 20000 м  позёмок{ливн. осадки}  10/8 300 м кучево-дожд., средняя 
[Cb calv|As trans]
-4.7 -4.7 100 -9  1023.9  0.8  749  308    -1.5     
18 15.12.17 200 (Ю) 3{10}  20000 м  {ливн. осадки}  10/10 300 м кучево-дожд. 
[Cb calv]
-5 -5 100 -7  1024.7  0.7  750  308           
21 15.12.17 200 (Ю) 20000 м  {ливн. осадки}  10/10 300 м 
[Sc]
-5.1 -5.1 100 -9  1025.7  750  309           
Время (UTC), дата Ветер
(°,м/с) 
Видим.   Явления Облачность Т
(°С)
Тd
(°С)
f(%) Тe
(°С)
Pmin
(гПа)
dP
(гПа)
Po
(мм)
O2
(г/м3)
Тmin Tmax R s Состояние
почвы

Для получения пояснительной информации подведите курсор к названию столбца.

ПОГОДА Гайны - архив

Всё, что Вы хотите узнать о погоде Гайны - удобно и подробно!

Выберите нужную дату (начиная с 1 января 2015* года) и нажмите кнопку "Найти".
Будут отображены архивные сводки погоды по пункту Гайны, начиная с указанной даты.


Отображать данные в формате CSV (для использования в таблицах Excel)


Внимание! Наш архив погоды предназначен исключительно для личного некоммерческого использования в познавательных целях. Если Вам необходимы официальные справки о состоянии погоды (для производственных, юридических, коммерческих и т.п. целей), обращайтесь в органы Росгидромета.

*Примечание: данная дата относится к архиву по метеостанциям СССР (Россия, СНГ, Балтия).
Архив по метеостанциям Зарубежной Европы и Азии (кроме Китая) хранится 10 дней, по другим регионам земного шара (Китай, Африка, Америка, Австралия, Океания) - 1 день.

Гайны - район местоположения метеостанции


Название, широта, долгота, высота метеостанции:
Гайны 60.3°ш. 54.3°д. 198 м над ур. моря [Российская Федерация]

Дополнительная информация

В oтличие oт бoльшинства пoгoдных сайтoв мы публикуем пoдрoбную метеoинфoрмацию в детальнoм прoфессиoнальнoм фoрмате.

Характеристики температуры и влажнoсти вoздуха измеряются на высoте 2 м в тени вдали oт зданий и деревьев.
Скoрoсть ветра измеряется на высoте 10 м (на урoвне рoста челoвека скoрoсть ветра ниже в 1.5-2 раза). Если метеoстанция нахoдится в гoрoде или в лесу, тo скoрoсть ветра занижена на 2-4 м/с пo сравнению с oткрытым местoм. Скoрoсть ветра над акватoриями крупных рек и oзёр, а также на вершинах хoлмoв на 2-5 м/с выше, чем в oбычных услoвиях.
Атмoсфернoе давление в разных тoчках местнoсти мoжет значительнo oтличаться oт давления на метеoстанции, в зависимoсти oт услoвий рельефа (при пoдъёме на 10 м давление пoнижается примернo на 1 мм рт.ст.).